Previsão horária em Abergavenny

Hoje, 11 Abril, Domingo

Tempo Temperatura Precipitação Vento Pressão Humidade
00:00 -1°C° 0 mm 2 m/s 746 mmHg 97%
01:00 -1°C° 0 mm 2 m/s 746 mmHg 96%
02:00 -2°C° 0 mm 2 m/s 746 mmHg 95%
03:00 -2°C° 0 mm 2 m/s 746 mmHg 95%
04:00 -2°C° 0 mm 2 m/s 747 mmHg 94%
05:00 -2°C° 0 mm 2 m/s 747 mmHg 94%
06:00 -1°C° 0 mm 2 m/s 748 mmHg 94%
07:00 -1°C° 0 mm 2 m/s 748 mmHg 90%
08:00 +1°C° 0 mm 2 m/s 748 mmHg 87%
09:00 +2°C° 0 mm 2 m/s 749 mmHg 84%
10:00 +3°C° 0.2 mm 2 m/s 749 mmHg 78%
11:00 +4°C° 0.2 mm 2 m/s 749 mmHg 72%
12:00 +5°C° 0.2 mm 2 m/s 749 mmHg 66%
13:00 +5°C° 0.4 mm 2 m/s 749 mmHg 66%
14:00 +4°C° 0.4 mm 3 m/s 750 mmHg 66%
15:00 +5°C° 0.4 mm 3 m/s 750 mmHg 66%
16:00 +4°C° 0.3 mm 3 m/s 750 mmHg 72%
17:00 +3°C° 0.3 mm 3 m/s 750 mmHg 77%
18:00 +2°C° 0.3 mm 3 m/s 751 mmHg 83%
19:00 +1°C° 0 mm 3 m/s 751 mmHg 85%
20:00 -1°C° 0 mm 2 m/s 752 mmHg 86%
21:00 -2°C° 0 mm 2 m/s 753 mmHg 88%
22:00 -2°C° 0 mm 2 m/s 753 mmHg 87%
23:00 -3°C° 0 mm 2 m/s 753 mmHg 86%

Amanhã, 12 Abril, Segunda-feira

Tempo Temperatura Precipitação Vento Pressão Humidade
00:00 -3°C° 0 mm 2 m/s 753 mmHg 85%
01:00 0°C° 0 mm 1 m/s 753 mmHg 86%
02:00 0°C° 0 mm 1 m/s 753 mmHg 88%
03:00 0°C° 0 mm 1 m/s 753 mmHg 89%
04:00 +1°C° 0.3 mm 1 m/s 754 mmHg 91%
05:00 +1°C° 0.3 mm 1 m/s 754 mmHg 94%
06:00 +2°C° 0.3 mm 1 m/s 754 mmHg 96%
07:00 +2°C° 0.2 mm 1 m/s 754 mmHg 96%
08:00 +3°C° 0.2 mm 1 m/s 754 mmHg 97%
09:00 +3°C° 0.2 mm 1 m/s 755 mmHg 97%
10:00 +4°C° 0 mm 1 m/s 755 mmHg 92%
11:00 +5°C° 0 mm 1 m/s 755 mmHg 87%
12:00 +6°C° 0 mm 1 m/s 756 mmHg 82%
13:00 +5°C° 0.1 mm 2 m/s 756 mmHg 79%
14:00 +6°C° 0.1 mm 2 m/s 756 mmHg 76%
15:00 +7°C° 0.1 mm 3 m/s 756 mmHg 73%
16:00 +5°C° 0.1 mm 3 m/s 756 mmHg 77%
17:00 +5°C° 0.1 mm 3 m/s 756 mmHg 80%
18:00 +4°C° 0.1 mm 3 m/s 756 mmHg 84%
19:00 +4°C° 0 mm 2 m/s 757 mmHg 86%
20:00 +2°C° 0 mm 2 m/s 757 mmHg 87%
21:00 +2°C° 0 mm 1 m/s 757 mmHg 89%
22:00 +2°C° 0 mm 1 m/s 758 mmHg 89%
23:00 +1°C° 0 mm 1 m/s 758 mmHg 89%

Depois de amanhã, 13 Abril, Terça-feira

Tempo Temperatura Precipitação Vento Pressão Humidade
00:00 +1°C° 0 mm 1 m/s 758 mmHg 89%
01:00 +2°C° 0 mm 1 m/s 758 mmHg 89%
02:00 +1°C° 0 mm 0 m/s 758 mmHg 88%
03:00 +2°C° 0 mm 0 m/s 758 mmHg 88%
04:00 +2°C° 0 mm 0 m/s 758 mmHg 88%
05:00 +2°C° 0 mm 0 m/s 758 mmHg 88%
06:00 +3°C° 0 mm 0 m/s 758 mmHg 89%
07:00 +4°C° 0 mm 0 m/s 758 mmHg 88%
08:00 +5°C° 0 mm 1 m/s 758 mmHg 87%
09:00 +6°C° 0 mm 1 m/s 759 mmHg 86%
10:00 +7°C° 0 mm 1 m/s 759 mmHg 80%
11:00 +9°C° 0 mm 1 m/s 758 mmHg 75%
12:00 +10°C° 0 mm 1 m/s 758 mmHg 70%
13:00 +9°C° 0.3 mm 2 m/s 758 mmHg 70%
14:00 +9°C° 0.3 mm 2 m/s 758 mmHg 70%
15:00 +10°C° 0.3 mm 2 m/s 758 mmHg 69%
16:00 +9°C° 0.4 mm 2 m/s 757 mmHg 74%
17:00 +8°C° 0.4 mm 2 m/s 757 mmHg 79%
18:00 +8°C° 0.4 mm 2 m/s 757 mmHg 84%
19:00 +6°C° 0.1 mm 2 m/s 758 mmHg 86%
20:00 +6°C° 0.1 mm 1 m/s 758 mmHg 88%
21:00 +5°C° 0.1 mm 1 m/s 758 mmHg 91%
22:00 +4°C° 0 mm 1 m/s 758 mmHg 91%
23:00 +4°C° 0 mm 1 m/s 758 mmHg 91%

14 Abril, Quarta-feira

Tempo Temperatura Precipitação Vento Pressão Humidade
00:00 +3°C° 0 mm 1 m/s 758 mmHg 91%
01:00 +3°C° 0 mm 1 m/s 758 mmHg 91%
02:00 +3°C° 0 mm 1 m/s 758 mmHg 91%
03:00 +2°C° 0 mm 1 m/s 758 mmHg 91%
04:00 +2°C° 0 mm 1 m/s 758 mmHg 91%
05:00 +1°C° 0 mm 2 m/s 758 mmHg 91%
06:00 +1°C° 0 mm 2 m/s 758 mmHg 91%
07:00 +3°C° 0 mm 2 m/s 759 mmHg 87%
08:00 +5°C° 0 mm 2 m/s 759 mmHg 82%
09:00 +7°C° 0 mm 2 m/s 759 mmHg 78%
10:00 +8°C° 0 mm 2 m/s 759 mmHg 73%
11:00 +9°C° 0 mm 2 m/s 759 mmHg 68%
12:00 +10°C° 0 mm 3 m/s 758 mmHg 62%
13:00 +10°C° 0.1 mm 3 m/s 758 mmHg 65%
14:00 +9°C° 0.1 mm 3 m/s 758 mmHg 67%
15:00 +9°C° 0.1 mm 3 m/s 758 mmHg 69%
16:00 +9°C° 0.1 mm 2 m/s 758 mmHg 72%
17:00 +8°C° 0.1 mm 2 m/s 758 mmHg 75%
18:00 +8°C° 0.1 mm 2 m/s 758 mmHg 77%
19:00 +7°C° 0 mm 2 m/s 758 mmHg 80%
20:00 +6°C° 0 mm 1 m/s 759 mmHg 82%
21:00 +5°C° 0 mm 1 m/s 759 mmHg 84%
22:00 +4°C° 0 mm 1 m/s 759 mmHg 85%
23:00 +3°C° 0 mm 1 m/s 759 mmHg 85%

15 Abril, Quinta-feira

Tempo Temperatura Precipitação Vento Pressão Humidade
00:00 +2°C° 0 mm 1 m/s 759 mmHg 86%
01:00 +1°C° 0 mm 2 m/s 759 mmHg 86%
02:00 -1°C° 0 mm 2 m/s 759 mmHg 86%
03:00 -1°C° 0 mm 2 m/s 759 mmHg 86%
04:00 -1°C° 0 mm 2 m/s 759 mmHg 85%
05:00 -2°C° 0 mm 2 m/s 759 mmHg 83%
06:00 -2°C° 0 mm 2 m/s 759 mmHg 82%
07:00 +1°C° 0 mm 2 m/s 760 mmHg 75%
08:00 +2°C° 0 mm 3 m/s 760 mmHg 68%
09:00 +4°C° 0 mm 3 m/s 760 mmHg 61%
10:00 +5°C° 0 mm 3 m/s 760 mmHg 60%
11:00 +6°C° 0 mm 4 m/s 759 mmHg 58%
12:00 +7°C° 0 mm 4 m/s 759 mmHg 56%
13:00 +7°C° 0 mm 4 m/s 759 mmHg 54%
14:00 +7°C° 0 mm 4 m/s 758 mmHg 53%
15:00 +8°C° 0 mm 4 m/s 758 mmHg 51%
16:00 +7°C° 0 mm 4 m/s 758 mmHg 58%
17:00 +7°C° 0 mm 3 m/s 758 mmHg 65%
18:00 +5°C° 0 mm 3 m/s 758 mmHg 72%
19:00 +4°C° 0 mm 3 m/s 758 mmHg 76%
20:00 +3°C° 0 mm 2 m/s 758 mmHg 80%
21:00 +2°C° 0 mm 1 m/s 759 mmHg 84%
22:00 +1°C° 0 mm 2 m/s 759 mmHg 86%
23:00 -1°C° 0 mm 2 m/s 759 mmHg 88%

16 Abril, Sexta-feira

Tempo Temperatura Precipitação Vento Pressão Humidade
00:00 -1°C° 0 mm 2 m/s 759 mmHg 90%
01:00 -2°C° 0 mm 2 m/s 759 mmHg 91%
02:00 -2°C° 0 mm 2 m/s 759 mmHg 92%
03:00 -3°C° 0 mm 2 m/s 759 mmHg 94%
04:00 -3°C° 0 mm 2 m/s 759 mmHg 94%
05:00 -3°C° 0 mm 2 m/s 760 mmHg 95%
06:00 -3°C° 0 mm 2 m/s 760 mmHg 95%
07:00 0°C° 0 mm 3 m/s 760 mmHg 85%
08:00 +1°C° 0 mm 4 m/s 760 mmHg 76%
09:00 +3°C° 0 mm 5 m/s 760 mmHg 66%
10:00 +5°C° 0 mm 5 m/s 760 mmHg 63%
11:00 +7°C° 0 mm 5 m/s 760 mmHg 59%
12:00 +8°C° 0 mm 6 m/s 759 mmHg 55%
13:00 +8°C° 0 mm 6 m/s 759 mmHg 56%
14:00 +8°C° 0 mm 6 m/s 759 mmHg 57%
15:00 +9°C° 0 mm 5 m/s 759 mmHg 58%
16:00 +8°C° 0 mm 5 m/s 759 mmHg 62%
17:00 +7°C° 0 mm 5 m/s 758 mmHg 67%
18:00 +7°C° 0 mm 4 m/s 758 mmHg 71%
19:00 +5°C° 0 mm 4 m/s 759 mmHg 76%
20:00 +3°C° 0 mm 4 m/s 759 mmHg 82%
21:00 +2°C° 0 mm 3 m/s 759 mmHg 87%
22:00 +1°C° 0 mm 3 m/s 759 mmHg 89%
23:00 0°C° 0 mm 3 m/s 759 mmHg 91%
Mostrar mais

Necessitamos do seu Consentimento

A Meteoprog e os seus Fornecedores de Serviços podem armazenar e aceder a dados pessoais como cookies, identificadores do dispositivo ou outras tecnologias semelhantes existentes no seu dispositivo e processar estes dados para personalizar conteúdos e anúncios, assim como funcionalidades nas redes sociais e análise de tráfego.

  • Armazenar e/ou aceder a informações no seu dispositivo

    Os cookies, identificadores do dispositivo ou outras informações podem ser armazenados ou acedidos no seu dispositivo, para os fins acima indicados.

  • Anúncios e conteúdos personalizados, medição de anúncios e conteúdos, dados sobre o público-alvo e desenvolvimento de produtos

    Os anúncios e os conteúdos podem ser personalizados com base num perfil. Podem ser adicionados dados adicionais para uma maior personalização dos anúncios e dos conteúdos. A eficácia dos anúncios e dos conteúdos pode ser medida. Podem ser obtidas informações sobre o público que visualizou os anúncios e os conteúdos. Estes dados podem ser usados para desenvolver ou melhorar sistemas, softwares ou a experiência do utilizador.

Ao clicar em "Eu concordo”, permitirá o uso de cookies, identificadores do dispositivo e web beacons mencionados ou outras tecnologias semelhantes. As configurações do navegador do seu dispositivo podem ser alteradas.

Para certos fins, podem ser invocados interesses legítimos ao invés de consentimento. Pode ler mais informação sobre este assunto na nossa Política de Privacidade e Cookies.